Home   Weather   Santa Fe   Past weeks
Flag for USA

Past Weather in Santa Fe, New Mexico, USA — Yesterday and Last 2 Weeks

Now
41 °F

Clear.


Feels Like: 35 °F
Forecast: 60 / 33 °F
Wind: 9 mph from Northeast

Location: Santa Fe County Municipal Airport

Current Time: Mar 24, 2019 at 11:52:13 pm

Latest Report: Mar 24, 2019 at 10:53 pm


Visibility: 10 mi

Pressure: 30.14 "Hg (23.19 "Hg at 2132m altitude)

Humidity: 39%

Dew Point: 18 °F

Location of Santa FeLocation

Past Weather in Santa Fe — Graph

°F

Santa Fe Temperature Yesterday

Maximum temperature yesterday: 57 °F (at 5:53 pm)
Minimum temperature yesterday: 28 °F (at 5:53 am)
Average temperature yesterday: 43 °F

High & Low Weather Summary for the Past Weeks

 TemperatureHumidityPressure
High62 °F (Mar 24, 2:53 pm)100% (Mar 12, 10:05 pm)30.41 "Hg (Mar 12, 10:05 pm)
Low24 °F (Mar 15, 7:53 am)16% (Mar 24, 5:53 pm)29.24 "Hg (Mar 13, 5:53 am)
Average41 °F65%29.99 "Hg
* Reported Mar 10 4:53 am — Mar 24 9:53 pm, Santa Fe. Weather by CustomWeather, © 2019

Note: Actual official high and low records may vary slightly from our data, if they occured in-between our weather recording intervals... More about our weather records

Advertising

Santa Fe Weather History for the Previous 24 Hours

Scroll right to see more
 ConditionsComfort  
Time TempWeatherWind HumidityBarometerVisibility
9:53 pm
Sun, Mar 24
38 °FClear.7 mph43%30.14 "Hg10 mi
8:53 pm41 °FClear.8 mph38%30.12 "Hg10 mi
7:53 pm48 °FClear.8 mph25%30.09 "Hg10 mi
6:53 pm56 °FSunny.16 mph17%30.04 "Hg10 mi
5:53 pm59 °FSunny.20 mph16%30.01 "Hg10 mi
4:53 pm61 °FSunny.18 mph17%29.98 "Hg10 mi
3:53 pm61 °FSunny.20 mph17%29.97 "Hg10 mi
2:53 pm62 °FPassing clouds.18 mph20%29.97 "Hg10 mi
1:53 pm59 °FSunny.18 mph24%29.99 "Hg10 mi
12:53 pm57 °FSunny.18 mph28%30.01 "Hg10 mi
11:53 am55 °FSunny.16 mph34%30.02 "Hg10 mi
10:53 am50 °FSunny.12 mph43%30.06 "Hg10 mi
9:53 am47 °FSunny.12 mph46%30.04 "Hg10 mi
8:53 am43 °FSunny.No wind56%30.05 "Hg10 mi
7:53 am35 °FSunny.3 mph72%30.06 "Hg10 mi
6:53 am34 °FClear.6 mph73%30.01 "Hg10 mi
5:53 am35 °FClear.9 mph70%29.98 "Hg10 mi
4:53 am36 °FClear.6 mph67%29.98 "Hg10 mi
3:53 am37 °FClear.3 mph65%29.97 "Hg10 mi
2:53 am37 °FClear.12 mph62%29.97 "Hg10 mi
1:53 am37 °FClear.8 mph65%29.96 "Hg10 mi
12:53 am40 °FClear.10 mph55%29.96 "Hg10 mi
11:53 pm
Sat, Mar 23
40 °FClear.10 mph55%29.98 "Hg10 mi
Weather by CustomWeather, © 2019

See weather overview